Onweer radar Meer informatie blitzortung!


Regen radar Meer informatie rain snow radar


Bezoek onze andere website:

Template documentation
and downloads

And another site



15 daagse weersverwachting Hjørring (DK)

  • Overzicht
  • Per uur
  • 15 dagen
  • Extra
  • Vergelijk
  • Kaarten
  • Dagkaart
  • Meer »
  • Info
  • Statistieken
  • Directe link
    Temp 6h Neerslag Wind  
 07:41     17:28    Daglengte: 9:47 Vandaag
19:00
 
2
 07:38     17:30    Daglengte: 9:52 Morgen
01:00
 
4
07:00
 
6
13:00
6.5 mm
9
19:00
7.5 mm
10
 07:36     17:32    Daglengte: 9:56 Vrijdag 21 Feb
01:00
16.5 mm
10
07:00
 
10
13:00
 
11
19:00
8.7 mm
10
 07:33     17:35    Daglengte: 10:02 Zaterdag 22 Feb
01:00
21.3 mm
11
07:00
30.0 mm
12
Locatie info
Region: Nordjylland
Latitude: 57.4598°N
Longitude: 9.9841°E
51 masl
Postcode: 9800
Temp/Neerslag /Baro Onweer/Dauwpunt
    Temp Baro 1h Neerslag Dauwpunt Wind UV Bewolking  
 07:41     17:28    Daglengte: 9:47 Vandaag
14:00
Voelt als: 2.4°
1004.4 hPa
14%
1.8°
7
Windvlaag: 7.9 m/s
29%
15:00
Voelt als: 2.4°
1005.0 hPa
14%
1.4°
6
Windvlaag: 7.8 m/s
4%
16:00
Voelt als: 2.1°
1005.6 hPa
14%
0.9°
6
Windvlaag: 7.4 m/s
10%
17:00
Voelt als: 1.9°
1006.0 hPa
14%
0.8°
4
Windvlaag: 6.4 m/s
1%
18:00
Voelt als: 0.9°
1006.5 hPa
14%
1.4°
3
Windvlaag: 5.1 m/s
10%
19:00
Voelt als: 0.6°
1007.1 hPa
14%
1.9°
2
Windvlaag: 3.3 m/s
24%
20:00
Voelt als: 0.2°
1007.5 hPa
16%
1.8°
2
Windvlaag: 3.2 m/s
42%
21:00
Voelt als: 0.1°
1007.8 hPa
20%
1.8°
3
Windvlaag: 3.2 m/s
39%
22:00
Voelt als: -0.1°
1008.1 hPa
18%
2.1°
3
Windvlaag: 3.7 m/s
30%
23:00
Voelt als: -0.7°
1008.4 hPa
17%
1.9°
3
Windvlaag: 4.1 m/s
24%
 07:38     17:30    Daglengte: 9:52 Morgen
00:00
Voelt als: -0.3°
1008.7 hPa
23%
2.4°
3
Windvlaag: 4.6 m/s
64%
01:00
Voelt als: 0.9°
1009.1 hPa
62%
3.4°
4
Windvlaag: 6.1 m/s
79%
02:00
Voelt als: 0.9°
1009.1 hPa
79%
2.8°
4
Windvlaag: 7 m/s
74%
03:00
Voelt als: 0.1°
1009.0 hPa
33%
2.0°
4
Windvlaag: 7.6 m/s
73%
04:00
Voelt als: -0.6°
1008.7 hPa
16%
1.4°
5
Windvlaag: 7.6 m/s
82%
05:00
Voelt als: -1.3°
1008.2 hPa
14%
0.8°
5
Windvlaag: 7.9 m/s
89%
06:00
Voelt als: -1.8°
1007.5 hPa
14%
0.4°
5
Windvlaag: 9.2 m/s
89%
07:00
Voelt als: -2.5°
1006.8 hPa
69%
0.8°
6
Windvlaag: 10.4 m/s
91%
08:00
Voelt als: -2.5°
1006.1 hPa 0.5 mm
82%
1.4°
7
Windvlaag: 11.6 m/s
91%
09:00
Voelt als: -2.4°
1005.2 hPa 0.8 mm
82%
1.9°
8
Windvlaag: 13.2 m/s
91%
10:00
Voelt als: -2.1°
1004.2 hPa 1.0 mm
82%
2.3°
9
Windvlaag: 14.2 m/s
91%
11:00
Voelt als: -1.5°
1003.0 hPa 1.3 mm
82%
2.9°
9
Windvlaag: 14.4 m/s
91%
12:00
Voelt als: -1.0°
1001.7 hPa 1.4 mm
82%
3.3°
9
Windvlaag: 14.4 m/s
91%
13:00
Voelt als: -0.5°
1000.4 hPa 1.5 mm
82%
3.8°
9
Windvlaag: 14.4 m/s
91%
14:00
Voelt als: 0.1°
999.3 hPa 1.1 mm
82%
4.4°
9
Windvlaag: 14.5 m/s
91%
15:00
Voelt als: 0.8°
998.2 hPa
82%
5.0°
9
Windvlaag: 14.9 m/s
91%
16:00
Voelt als: 1.6°
997.3 hPa 1.6 mm
82%
5.5°
9
Windvlaag: 15.5 m/s
89%
17:00
Voelt als: 1.7°
996.0 hPa 1.2 mm
82%
5.6°
10
Windvlaag: 15.9 m/s
91%
18:00
Voelt als: 1.9°
994.7 hPa 1.5 mm
82%
5.5°
10
Windvlaag: 16.7 m/s
91%
19:00
Voelt als: 1.8°
993.2 hPa 2.2 mm
82%
5.4°
10
Windvlaag: 16.9 m/s
91%
20:00
Voelt als: 1.6°
991.8 hPa 2.7 mm
82%
5.4°
11
Windvlaag: 17.5 m/s
91% warningclass
21:00
Voelt als: 1.2°
991.1 hPa 3.6 mm
82%
5.0°
11
Windvlaag: 17.3 m/s
91% warningclass
22:00
Voelt als: -0.8°
992.0 hPa 3.6 mm
82%
3.0°
10
Windvlaag: 18.4 m/s
91% warningclass
23:00
Voelt als: -1.4°
993.1 hPa 3.4 mm
33%
1.7°
10
Windvlaag: 13.3 m/s
91%
 07:36     17:32    Daglengte: 9:56 Vrijdag 21 Feb
00:00
Voelt als: -1.5°
994.3 hPa 3.1 mm
69%
1.1°
11
Windvlaag: 13.2 m/s
70%
01:00
Voelt als: -1.2°
995.5 hPa
23%
-0.7°
10
Windvlaag: 13.7 m/s
20%
02:00
Voelt als: -1.1°
996.5 hPa
25%
-0.3°
10
Windvlaag: 13.3 m/s
15%
03:00
Voelt als: -1.3°
997.4 hPa
18%
-0.4°
10
Windvlaag: 12.6 m/s
8%
04:00
Voelt als: -1.3°
998.1 hPa
23%
0.3°
9
Windvlaag: 13.1 m/s
25%
05:00
Voelt als: -1.1°
999.0 hPa
33%
1.3°
9
Windvlaag: 14.4 m/s
27%
06:00
Voelt als: -0.7°
1000.1 hPa
41%
1.7°
9
Windvlaag: 13.1 m/s
23%
07:00
Voelt als: -0.6°
1001.3 hPa
73%
0.7°
10
Windvlaag: 14.1 m/s
16%
08:00
Voelt als: -0.3°
1002.7 hPa
22%
1.1°
10
Windvlaag: 13.9 m/s
12%
09:00
Voelt als: 0.2°
1003.9 hPa
30%
1.3°
10
Windvlaag: 13.9 m/s
16%
10:00
Voelt als: 0.6°
1005.3 hPa
39%
1.4°
10
Windvlaag: 15 m/s
52%
11:00
Voelt als: 0.9°
1006.1 hPa
45%
2.5°
11
Windvlaag: 14.7 m/s
73%
12:00
Voelt als: 1.3°
1006.5 hPa
76%
3.2°
11
Windvlaag: 16.5 m/s
83%
13:00
Voelt als: 1.7°
1006.3 hPa
24%
3.1°
11
Windvlaag: 17 m/s
72%
14:00
Voelt als: 2.2°
1005.8 hPa
24%
3.0°
11
Windvlaag: 17.2 m/s
85% warningclass
15:00
Voelt als: 1.7°
1005.4 hPa
22%
3.0°
12
Windvlaag: 17.9 m/s
97% warningclass
16:00
Voelt als: 1.1°
1005.1 hPa
100%
3.2°
11
Windvlaag: 17.9 m/s
97% warningclass
17:00
Voelt als: 0.3°
1004.7 hPa 2.6 mm
100%
3.5°
11
Windvlaag: 17.2 m/s
98% warningclass
18:00
Voelt als: -0.0°
1004.3 hPa 2.7 mm
100%
4.0°
11
Windvlaag: 17.3 m/s
100% warningclass
19:00
Voelt als: 1.1°
1002.3 hPa 3.5 mm
100%
4.0°
10
Windvlaag: 7.1 m/s
100%
20:00
Voelt als: 1.1°
1001.7 hPa 3.5 mm
100%
4.1°
10
Windvlaag: 14.1 m/s
96%
21:00
Voelt als: 1.1°
1001.1 hPa 3.6 mm
100%
4.2°
11
Windvlaag: 14.3 m/s
98%
22:00
Voelt als: 1.2°
1000.3 hPa 6.0 mm
100%
4.4°
11
Windvlaag: 14.7 m/s
98%
23:00
Voelt als: 1.4°
999.6 hPa
97%
4.6°
11
Windvlaag: 15.4 m/s
100%
 07:33     17:35    Daglengte: 10:02 Zaterdag 22 Feb
00:00
Voelt als: 1.6°
998.8 hPa 3.8 mm
100%
4.8°
11
Windvlaag: 15.5 m/s
100%
01:00
Voelt als: 1.5°
998.1 hPa 4.4 mm
100%
4.8°
11
Windvlaag: 7.8 m/s
100%
02:00
Voelt als: 1.6°
997.1 hPa 5.0 mm
100%
5.0°
11
Windvlaag: 17 m/s
100%
03:00
Voelt als: 1.8°
996.2 hPa 5.5 mm
100%
5.2°
11
Windvlaag: 16.8 m/s
100%
04:00
Voelt als: 2.0°
995.3 hPa 5.2 mm
100%
5.4°
11
Windvlaag: 16.3 m/s
100%
05:00
Voelt als: 2.2°
994.5 hPa 5.3 mm
100%
5.6°
11
Windvlaag: 14.4 m/s
100%
06:00
Voelt als: 2.0°
993.8 hPa 4.7 mm
100%
5.4°
11
Windvlaag: 14.1 m/s
100%
07:00
Voelt als: 1.6°
993.2 hPa 4.3 mm
98%
5.3°
12
Windvlaag: 6.5 m/s
98%
08:00
Voelt als: 1.7°
993.4 hPa 7.5 mm
100%
5.1°
11
Windvlaag: 18.1 m/s
99% warningclass
09:00
Voelt als: 1.6°
993.6 hPa 8.2 mm
100%
4.7°
11
Windvlaag: 20.4 m/s
91% warningclass
10:00
Voelt als: 1.3°
993.7 hPa 8.4 mm
100%
4.3°
11
Windvlaag: 22.7 m/s
78% warningclass
11:00
Voelt als: 0.9°
993.9 hPa 8.5 mm
100%
3.7°
11
Windvlaag: 18.4 m/s
76% warningclass
12:00
Voelt als: 0.6°
994.1 hPa 8.6 mm
97%
3.2°
11
Windvlaag: 16.8 m/s
90%
13:00
Voelt als: 0.5°
994.4 hPa 8.5 mm
100%
3.0°
11
Windvlaag: 2.9 m/s
88%
Temp/Neerslag /Baro Onweer/Dauwpunt
    Temp Baro Neerslag Dauwpunt Wind Bewolking  
 07:41     17:28    Daglengte: 9:47 Vandaag
16:00
Voelt als: 2.1°
1005.6 hPa   0.9°
6
10%
19:00
Voelt als: 0.6°
1007.1 hPa   1.9°
2
24%
22:00
Voelt als: -0.1°
1008.1 hPa   2.1°
3
30%
 07:38     17:30    Daglengte: 9:52 Morgen
01:00
Voelt als: 0.9°
1009.1 hPa   3.4°
4
79%
04:00
Voelt als: -0.6°
1008.7 hPa   1.4°
5
82%
07:00
Voelt als: -2.5°
1006.8 hPa   0.8°
6
91%
10:00
Voelt als: -2.1°
1004.2 hPa 2.3 mm 2.3°
9
91%
13:00
Voelt als: -0.5°
1000.4 hPa 4.2 mm 3.8°
9
91%
16:00
Voelt als: 1.6°
997.3 hPa 2.7 mm 5.5°
9
89%
19:00
Voelt als: 1.8°
993.2 hPa 4.8 mm 5.4°
10
91%
22:00
Voelt als: -0.8°
992.0 hPa 10.0 mm 3.0°
10
91% warningclass
 07:36     17:32    Daglengte: 9:56 Vrijdag 21 Feb
01:00
Voelt als: -1.2°
995.5 hPa 6.5 mm -0.7°
10
20%
04:00
Voelt als: -1.3°
998.1 hPa   0.3°
9
25%
07:00
Voelt als: -0.6°
1001.3 hPa   0.7°
10
16%
10:00
Voelt als: 0.6°
1005.3 hPa   1.4°
10
52%
13:00
Voelt als: 1.7°
1006.3 hPa   3.1°
11
72%
16:00
Voelt als: 1.1°
1005.1 hPa   3.2°
11
97% warningclass
19:00
Voelt als: 1.1°
1002.3 hPa 8.7 mm 4.0°
10
100%
22:00
Voelt als: 1.2°
1000.3 hPa 13.1 mm 4.4°
11
98%
 07:33     17:35    Daglengte: 10:02 Zaterdag 22 Feb
01:00
Voelt als: 1.5°
998.1 hPa 8.2 mm 4.8°
11
100%
04:00
Voelt als: 2.0°
995.3 hPa 15.7 mm 5.4°
11
100%
07:00
Voelt als: 1.6°
993.2 hPa 14.3 mm 5.3°
12
98%
10:00
Voelt als: 1.3°
993.7 hPa 24.2 mm 4.3°
11
78% warningclass
13:00
Voelt als: 0.5°
994.4 hPa 25.6 mm 3.0°
11
88%
16:00
Voelt als: -0.3°
996.4 hPa 24.8 mm 2.0°
11
65%
19:00
Voelt als: -0.8°
997.3 hPa 25.5 mm 1.5°
11
60%
22:00
Voelt als: -0.4°
998.2 hPa 26.0 mm 1.4°
11
55%
 07:31     17:37    Daglengte: 10:06 Zondag 23 Feb
01:00
Voelt als: -0.2°
999.0 hPa 26.9 mm 1.3°
12
50%
04:00
Voelt als: -0.5°
999.1 hPa 27.7 mm 1.2°
12
51%
07:00
Voelt als: -0.8°
999.2 hPa 28.2 mm 1.1°
12
51%
10:00
Voelt als: 0.3°
999.4 hPa 28.7 mm 1.3°
11
49%
13:00
Voelt als: 1.3°
999.7 hPa 28.9 mm 1.4°
11
47%
16:00
Voelt als: 0.8°
1000.5 hPa 29.2 mm 1.6°
10
46%
19:00
Voelt als: 0.3°
1001.5 hPa 29.4 mm 2.0°
9
45%
22:00
Voelt als: 0.5°
1004.2 hPa 29.8 mm 1.9°
9
34%
 07:28     17:39    Daglengte: 10:11 Maandag 24 Feb
01:00
Voelt als: 0.8°
1007.0 hPa 29.8 mm 2.0°
8
23%
04:00
Voelt als: 0.7°
1009.1 hPa 29.8 mm 1.5°
7
44%
07:00
Voelt als: 0.4°
1011.2 hPa 29.8 mm 1.1°
6
64%
10:00
Voelt als: 1.3°
1008.7 hPa 29.8 mm 2.1°
5
78%
13:00
Voelt als: 2.0°
1006.0 hPa 29.8 mm 3.2°
5
92%
16:00
Voelt als: 1.4°
1003.4 hPa 29.8 mm 3.2°
5
92%
19:00
Voelt als: 0.5°
1000.6 hPa 29.8 mm 3.0°
5
92%
22:00
Voelt als: 1.1°
998.3 hPa 30.3 mm 2.9°
5
91%
 07:26     17:42    Daglengte: 10:16 Dinsdag 25 Feb
01:00
Voelt als: 1.7°
995.7 hPa 34.3 mm 2.9°
5
90%
04:00
Voelt als: 1.4°
995.3 hPa 37.1 mm 2.5°
6
78%
07:00
Voelt als: 0.3°
995.3 hPa 37.5 mm 1.5°
7
66%
10:00
Voelt als: 0.9°
995.3 hPa 37.7 mm 1.3°
8
67%
13:00
Voelt als: 1.7°
995.1 hPa 38.5 mm 1.1°
9
68%
16:00
Voelt als: 0.8°
995.8 hPa 39.9 mm 1.1°
7
61%
19:00
Voelt als: 0.1°
996.7 hPa 40.8 mm 0.9°
6
54%
22:00
Voelt als: -0.5°
997.3 hPa 41.6 mm 0.6°
6
55%
 07:23     17:44    Daglengte: 10:21 Woensdag 26 Feb
01:00
Voelt als: -1.0°
997.7 hPa 42.4 mm 0.3°
6
57%
04:00
Voelt als: -1.6°
996.0 hPa 42.6 mm 0.2°
6
73%
07:00
Voelt als: -2.1°
994.4 hPa 43.7 mm 0.3°
6
90%
10:00
Voelt als: -0.7°
992.1 hPa 44.1 mm 1.2°
6
91%
13:00
Voelt als: 0.7°
990.0 hPa 88.4 mm 2.2°
6
92%
19:00
Voelt als: 0.1°
989.5 hPa 88.9 mm 1.2°
4
90%
 07:20     17:46    Daglengte: 10:26 Donderdag 27 Feb
01:00
Voelt als: -2.0°
989.5 hPa 89.1 mm 0.0°
5
79%
07:00
Voelt als: -3.4°
988.4 hPa 89.1 mm -1.8°
5
85% warningclass
13:00
Voelt als: -0.1°
988.5 hPa 89.1 mm -1.1°
6
90%
19:00
Voelt als: -1.6°
992.0 hPa 89.2 mm -1.2°
4
84%
 07:18     17:48    Daglengte: 10:30 Vrijdag 28 Feb
01:00
Voelt als: -1.4°
994.0 hPa 89.9 mm -1.7°
3
70%
07:00
Voelt als: -2.3°
996.5 hPa 91.6 mm -2.5°
3
58% warningclass
13:00
Voelt als: 1.2°
999.2 hPa 92.4 mm -2.6°
4
83%
19:00
Voelt als: -1.1°
995.1 hPa 94.5 mm -0.9°
4
89%
 07:15     17:51    Daglengte: 10:36 Zaterdag 29 Feb
01:00
Voelt als: -2.0°
991.7 hPa 97.8 mm -0.6°
7
1%
07:00
Voelt als: -2.7°
989.8 hPa 102.0 mm -3.1°
7
1%
13:00
Voelt als: 0.6°
992.0 hPa 1.3 mm 0.3°
6
67%
19:00
Voelt als: -0.1°
993.0 hPa 1.4 mm -0.2°
6
62%
 07:12     17:53    Daglengte: 10:41 Zondag 01 Maa
01:00
Voelt als: -0.2°
993.2 hPa 2.0 mm -0.4°
5
65%
07:00
Voelt als: -0.2°
994.1 hPa 1.9 mm -1.1°
4
65%
13:00
Voelt als: 0.5°
996.9 hPa 1.5 mm -0.8°
5
56%
19:00
Voelt als: 0.3°
996.8 hPa 1.3 mm -0.8°
4
59%
 07:10     17:55    Daglengte: 10:45 Maandag 02 Maa
01:00
Voelt als: -0.9°
996.8 hPa 1.3 mm -0.6°
6
61%
07:00
Voelt als: -0.9°
995.5 hPa 0.8 mm -1.4°
6
58%
13:00
Voelt als: 1.5°
995.9 hPa 0.8 mm -0.3°
4
55%
19:00
Voelt als: 1.6°
996.7 hPa 1.1 mm 0.4°
3
59%
 07:07     17:57    Daglengte: 10:50 Dinsdag 03 Maa
01:00
Voelt als: 1.9°
997.0 hPa 1.1 mm 0.7°
2
60%
07:00
Voelt als: 1.6°
997.1 hPa 0.2 mm 1.1°
3
59%
13:00
Voelt als: 1.6°
999.8 hPa 1.2 mm 0.1°
5
56%
19:00
Voelt als: 0.4°
1000.7 hPa 1.1 mm -0.3°
5
47%
 07:04     18:00    Daglengte: 10:56 Woensdag 04 Maa
01:00
Voelt als: -0.3°
1001.0 hPa 0.3 mm -0.4°
5
50%
07:00
Voelt als: -0.1°
999.0 hPa 0.8 mm -0.1°
5
61%
13:00
Voelt als: 1.7°
999.3 hPa 1.1 mm 0.6°
5
69%
19:00
Voelt als: 1.3°
1000.7 hPa 0.7 mm 0.2°
4
66%
 07:02     18:02    Daglengte: 11:00 Donderdag 05 Maa
01:00
Voelt als: 0.8°
1002.8 hPa 0.7 mm -0.1°
4
57%
07:00
Voelt als: 0.4°
1003.8 hPa 1.0 mm 0.1°
5
54%
13:00
Voelt als: 1.6°
1004.5 hPa 0.5 mm 0.6°
5
63%
  CAPE Lifted Index Hail Supercell Tornado SRH 3km CL BTM PRES CL TOP PRES Swiss DWD icon SMHI TS
 07:41     17:28    Daglengte: 9:47 Vandaag
14:00 177 J/kg -0.1 K 0 % 0 % 0 % 0 m²/s² 0 0 2.51 2
15:00 112 J/kg 0.8 K 0 % 0 % 0 % 0 m²/s² 0 0 3.71 2
16:00 56 J/kg 1.7 K 0 % 0 % 0 % 0 m²/s² 0 0 5.18 1
17:00 17 J/kg 2.7 K 0 % 0 % 0 % 0 m²/s² 0 0 6.57 1
18:00 0 J/kg 3.6 K 0 % 0 % 0 % 0 m²/s² 0 0 7.89 1
19:00 1 J/kg 4.6 K 0 % 0 % 0 % 0 m²/s² 0 0 8.92 2
20:00 0 J/kg 5.6 K 0 % 0 % 0 % 0 m²/s² 0 0 9.14 2
21:00 0 J/kg 6.7 K 0 % 0 % 0 % 0 m²/s² 0 0 9.91 2
22:00 0 J/kg 8.3 K 0 % 0 % 0 % 0 m²/s² 0 0 11.69 2
23:00 2 J/kg 9.5 K 0 % 0 % 0 % 0 m²/s² 0 0 13.67 2
 07:38     17:30    Daglengte: 9:52 Morgen
00:00 14 J/kg 10.0 K 0 % 0 % 0 % 0 m²/s² 0 0 15.34 3
01:00 22 J/kg 11.5 K 0 % 0 % 0 % 0 m²/s² 0 0 18.16 3
02:00 0 J/kg 12.9 K 0 % 0 % 0 % 0 m²/s² 0 0 20.7 3
03:00 0 J/kg 13.4 K 0 % 0 % 0 % 0 m²/s² 0 0 21.26 3
04:00 0 J/kg 14.8 K 0 % 0 % 0 % 0 m²/s² 0 0 20.98 3
05:00 0 J/kg 15.5 K 0 % 0 % 0 % 0 m²/s² 0 0 19.52 3
06:00 0 J/kg 16.4 K 0 % 0 % 0 % 0 m²/s² 0 0 17.18 3
07:00 0 J/kg 13.2 K 0 % 0 % 0 % 0 m²/s² 0 0 13.59 3
08:00 0 J/kg 11.4 K 0 % 0 % 0 % 0 m²/s² 0 0 11.76 61
09:00 0 J/kg 10.4 K 0 % 0 % 0 % 0 m²/s² 0 0 10.76 61
10:00 0 J/kg 9.3 K 0 % 0 % 0 % 0 m²/s² 0 0 9.63 61
11:00 0 J/kg 8.4 K 0 % 0 % 0 % 0 m²/s² 0 0 8.67 61
12:00 0 J/kg 7.3 K 0 % 0 % 0 % 0 m²/s² 0 0 7.6 61
13:00 0 J/kg 6.5 K 0 % 0 % 0 % 0 m²/s² 0 0 6.83 61
14:00 0 J/kg 6.2 K 0 % 0 % 0 % 0 m²/s² 0 0 8.57 61
15:00 0 J/kg 7.3 K 0 % 0 % 0 % 0 m²/s² 0 0 12.25 61
16:00 0 J/kg 8.0 K 0 % 0 % 0 % 0 m²/s² 0 0 14.18 61
17:00 1 J/kg 7.7 K 0 % 0 % 0 % 0 m²/s² 0 0 12.62 61
18:00 1 J/kg 7.0 K 0 % 0 % 0 % 0 m²/s² 0 0 7.36 61
19:00 4 J/kg 7.4 K 0 % 0 % 0 % 0 m²/s² 0 0 7.73 61
20:00 20 J/kg 6.7 K 0 % 0 % 0 % 0 m²/s² 0 0 7.06 61
21:00 10 J/kg 9.4 K 0 % 0 % 0 % 0 m²/s² 0 0 9.85 61
22:00 25 J/kg 9.1 K 0 % 0 % 0 % 0 m²/s² 0 0 9.61 61
23:00 73 J/kg 7.2 K 0 % 0 % 0 % 0 m²/s² 0 0 7.74 3
 07:36     17:32    Daglengte: 9:56 Vrijdag 21 Feb
00:00 39 J/kg 7.2 K 0 % 0 % 0 % 0 m²/s² 0 0 9.12 3
01:00 71 J/kg 6.1 K 0 % 0 % 0 % 0 m²/s² 0 0 9.73 1
02:00 157 J/kg 3.2 K 0 % 0 % 0 % 0 m²/s² 0 0 5.36 1
03:00 164 J/kg 1.4 K 0 % 0 % 0 % 0 m²/s² 0 0 4.19 2
04:00 194 J/kg 0.7 K 0 % 0 % 0 % 0 m²/s² 0 0 1.99 2
05:00 171 J/kg 1.5 K 0 % 0 % 0 % 0 m²/s² 0 0 4.98 2
06:00 85 J/kg 1.6 K 0 % 0 % 0 % 0 m²/s² 0 0 4.66 2
07:00 74 J/kg 2.1 K 0 % 0 % 0 % 0 m²/s² 0 0 5.79 2
08:00 51 J/kg 4.1 K 0 % 0 % 0 % 0 m²/s² 0 0 7.91 2
09:00 48 J/kg 6.9 K 0 % 0 % 0 % 0 m²/s² 0 0 11.25 2
10:00 31 J/kg 8.6 K 0 % 0 % 0 % 0 m²/s² 0 0 14.24 2
11:00 38 J/kg 9.4 K 0 % 0 % 0 % 0 m²/s² 0 0 13.75 2
12:00 40 J/kg 9.2 K 0 % 0 % 0 % 0 m²/s² 0 0 11.57 2
13:00 17 J/kg 10.0 K 0 % 0 % 0 % 0 m²/s² 0 0 11.08 2
14:00 4 J/kg 10.5 K 0 % 0 % 0 % 0 m²/s² 0 0 11.49 3
15:00 8 J/kg 11.3 K 0 % 0 % 0 % 0 m²/s² 0 0 12.2 3
16:00 15 J/kg 12.4 K 0 % 0 % 0 % 0 m²/s² 0 0 13.36 61
17:00 11 J/kg 13.3 K 0 % 0 % 0 % 0 m²/s² 0 0 14.14 61
18:00 1 J/kg 12.9 K 0 % 0 % 0 % 0 m²/s² 0 0 13.47 61
19:00 4 J/kg 12.5 K 0 % 0 % 0 % 0 m²/s² 0 0 13.04 61
20:00 2 J/kg 11.4 K 0 % 0 % 0 % 0 m²/s² 0 0 12.03 61
21:00 0 J/kg 10.3 K 0 % 0 % 0 % 0 m²/s² 0 0 10.93 61
22:00 0 J/kg 9.2 K 0 % 0 % 0 % 0 m²/s² 0 0 10.13 61
23:00 0 J/kg 8.5 K 0 % 0 % 0 % 0 m²/s² 0 0 9.55 3
 07:33     17:35    Daglengte: 10:02 Zaterdag 22 Feb
00:00 0 J/kg 7.2 K 0 % 0 % 0 % 0 m²/s² 0 0 8.04 61
01:00 0 J/kg 5.8 K 0 % 0 % 0 % 0 m²/s² 0 0 6.97 61
02:00 0 J/kg 4.9 K 0 % 0 % 0 % 0 m²/s² 0 0 6.04 63
03:00 0 J/kg 3.9 K 0 % 0 % 0 % 0 m²/s² 0 0 4.26 63
04:00 0 J/kg 4.3 K 0 % 0 % 0 % 0 m²/s² 0 0 5.23 61
05:00 0 J/kg 4.5 K 0 % 0 % 0 % 0 m²/s² 0 0 8.01 61
06:00 0 J/kg 5.6 K 0 % 0 % 0 % 0 m²/s² 0 0 8.18 61
07:00 8 J/kg 6.6 K 0 % 0 % 0 % 0 m²/s² 0 0 7.74 3
08:00 40 J/kg 6.2 K 0 % 0 % 0 % 0 m²/s² 0 0 6.56 80
09:00 38 J/kg 6.1 K 0 % 0 % 0 % 0 m²/s² 0 0 6.49 80
10:00 77 J/kg 4.9 K 0 % 0 % 0 % 0 m²/s² 0 0 5.38 80
11:00 27 J/kg 5.8 K 0 % 0 % 0 % 0 m²/s² 0 0 6.22 80
12:00 20 J/kg 5.0 K 0 % 0 % 0 % 0 m²/s² 0 0 5.51 80
13:00 133 J/kg 2.9 K 0 % 0 % 0 % 0 m²/s² 0 0 3.35 80
Temp Baro Wind Neerslag
  EWN Forecast EWN WRFDA DWD ICON FMI HIRLAM MET Norway GFS
 07:41     17:28    Daglengte: 9:47 Vandaag
16:00 5.9° 1005.6 hPa 5.9 m/s 0.0 mm 5.9° 1003.4 hPa 5.8 m/s 0.5 mm 5.7° 1004.8 hPa 6.3 m/s -2.0 mm 6.3° 1006.1 hPa 5.5 m/s 0.0 mm 5.9° 1006.1 hPa 5.7 m/s 5.6° 1004.7 hPa 7.0 m/s
19:00 3.0° 1007.1 hPa 2.4 m/s 0.0 mm 3.0° 1004.8 hPa 2.4 m/s 0.5 mm 3.4° 1006.8 hPa 2.8 m/s 0.0 mm 3.3° 1007.6 hPa 2.1 m/s 0.0 mm 2.5° 1007.5 hPa 1.7 m/s 4.5° 1006.4 hPa 4.9 m/s
22:00 2.6° 1008.1 hPa 2.7 m/s 0.0 mm 2.1° 1006.0 hPa 3.1 m/s 0.5 mm 3.0° 1007.6 hPa 2.7 m/s 0.0 mm 5.0° 1008.4 hPa 3.4 m/s 0.0 mm 2.1° 1008.3 hPa 1.8 m/s 4.8° 1008.3 hPa 4.6 m/s
 07:38     17:30    Daglengte: 9:52 Morgen
01:00 4.2° 1009.1 hPa 4.1 m/s 0.0 mm 3.8° 1006.8 hPa 4.1 m/s 0.5 mm 4.4° 1008.4 hPa 3.6 m/s 0.0 mm 5.9° 1009.4 hPa 5.1 m/s 0.0 mm 3.2° 1009.4 hPa 3.6 m/s 4.7° 1009.1 hPa 5.9 m/s
04:00 3.3° 1008.7 hPa 4.6 m/s 0.0 mm 2.1° 1006.3 hPa 4.0 m/s 0.8 mm 3.6° 1008.5 hPa 3.8 m/s 0.0 mm 4.8° 1009.0 hPa 5.7 m/s 0.0 mm 2.6° 1008.9 hPa 4.4 m/s 3.3° 1008.6 hPa 5.9 m/s
07:00 2.5° 1006.8 hPa 6.5 m/s 0.0 mm 2.5° 1005.0 hPa 6.5 m/s 0.8 mm 3.0° 1007.0 hPa 5.5 m/s 0.0 mm 4.0° 1007.0 hPa 7.5 m/s 0.0 mm 1.6° 1006.9 hPa 6.2 m/s 2.8° 1006.8 hPa 7.0 m/s
10:00 3.5° 1004.2 hPa 8.9 m/s 2.3 mm 4.1° 1002.1 hPa 10.2 m/s 4.1 mm 3.9° 1004.2 hPa 7.9 m/s 2.1 mm 4.2° 1005.0 hPa 9.1 m/s 0.0 mm 2.8° 1004.3 hPa 8.5 m/s 4.3° 1003.9 hPa 10.4 m/s
13:00 4.7° 1000.4 hPa 9.0 m/s 4.2 mm 5.2° 998.3 hPa 10.5 m/s 14.2 mm 4.9° 1000.2 hPa 8.4 m/s 3.6 mm 4.8° 1002.0 hPa 9.5 m/s 0.0 mm 4.6° 1000.7 hPa 8.3 m/s 6.4° 1001.0 hPa 9.8 m/s
16:00 6.4° 997.3 hPa 9.5 m/s 2.7 mm 6.6° 994.6 hPa 9.9 m/s 20.2 mm 6.6° 996.1 hPa 8.0 m/s 0.3 mm 5.2° 998.1 hPa 10.3 m/s 0.0 mm 6.6° 997.6 hPa 9.5 m/s 7.2° 996.7 hPa 10.3 m/s
19:00 6.8° 993.2 hPa 10.4 m/s 4.8 mm 6.4° 991.2 hPa 11.4 m/s 25.1 mm 7.0° 992.5 hPa 10.1 m/s 2.2 mm 7.2° 994.1 hPa 9.3 m/s 0.0 mm 6.7° 993.4 hPa 10.4 m/s 7.1° 992.8 hPa 12.0 m/s
22:00 4.8° 992.0 hPa 10.3 m/s 10.0 mm 4.1° 992.0 hPa 9.0 m/s 40.5 mm 5.0° 991.9 hPa 10.9 m/s 4.2 mm 7.3° 990.3 hPa 11.1 m/s 0.0 mm 3.2° 992.7 hPa 10.5 m/s 4.6° 992.9 hPa 11.5 m/s
 07:36     17:32    Daglengte: 9:56 Vrijdag 21 Feb
01:00 4.4° 995.5 hPa 10.2 m/s 6.5 mm 4.2° 994.9 hPa 9.1 m/s 45.3 mm 4.4° 995.8 hPa 9.9 m/s 0.0 mm 4.7° 994.1 hPa 12.9 m/s 0.0 mm 4.3° 996.5 hPa 10.0 m/s 4.9° 996.8 hPa 12.4 m/s
04:00 4.2° 998.1 hPa 9.3 m/s 0.0 mm 4.2° 997.1 hPa 9.4 m/s 45.5 mm 4.1° 998.5 hPa 8.8 m/s 0.0 mm 4.5° 997.2 hPa 9.6 m/s 0.0 mm 4.0° 999.0 hPa 9.2 m/s 4.7° 999.9 hPa 10.8 m/s
07:00 4.8° 1001.3 hPa 9.9 m/s 0.0 mm 4.9° 1000.2 hPa 9.8 m/s 47.6 mm 4.7° 1001.9 hPa 8.7 m/s 0.1 mm 5.4° 999.6 hPa 9.0 m/s 0.0 mm 4.4° 1002.4 hPa 10.2 m/s 5.3° 1002.8 hPa 12.2 m/s
10:00 5.8° 1005.3 hPa 9.9 m/s 0.0 mm 5.6° 1003.8 hPa 11.3 m/s 47.8 mm 6.3° 1005.5 hPa 9.8 m/s 0.0 mm 5.7° 1006.0 hPa 9.8 m/s 5.7° 1006.2 hPa 11.7 m/s
13:00 6.7° 1006.3 hPa 10.7 m/s 0.0 mm 6.7° 1005.9 hPa 12.5 m/s 47.8 mm 7.5° 1006.4 hPa 11.2 m/s 0.0 mm 6.6° 1007.5 hPa 10.4 m/s 6.4° 1008.1 hPa 12.8 m/s
16:00 6.3° 1005.1 hPa 11.2 m/s 0.0 mm 5.9° 1005.5 hPa 10.4 m/s 47.8 mm 6.7° 1004.9 hPa 11.0 m/s 0.2 mm 6.4° 1006.0 hPa 11.2 m/s 6.0° 1007.0 hPa 12.9 m/s
19:00 6.2° 1002.3 hPa 10.5 m/s 8.7 mm 5.4° 1005.0 hPa 10.8 m/s 48.7 mm 6.1° 1003.1 hPa 10.3 m/s 1.1 mm 6.9° 1002.2 hPa 10.0 m/s 6.0° 1005.8 hPa 12.6 m/s
22:00 6.4° 1000.3 hPa 11.0 m/s 13.1 mm 5.7° 1002.5 hPa 11.3 m/s 51.7 mm 6.3° 999.8 hPa 11.0 m/s 0.5 mm 7.2° 1000.5 hPa 9.8 m/s 6.6° 1003.5 hPa 13.1 m/s
 07:33     17:35    Daglengte: 10:02 Zaterdag 22 Feb
01:00 6.7° 998.1 hPa 11.4 m/s 8.2 mm 6.3° 1000.6 hPa 11.6 m/s 53.9 mm 6.6° 994.7 hPa 12.3 m/s 1.6 mm 7.5° 998.8 hPa 9.5 m/s 6.8° 1001.4 hPa 14.3 m/s
04:00 7.0° 995.3 hPa 11.1 m/s 15.7 mm 6.4° 998.1 hPa 11.2 m/s 56.3 mm 7.0° 990.7 hPa 11.1 m/s 8.5 mm 7.4° 996.2 hPa 9.9 m/s 7.1° 997.6 hPa 13.8 m/s
07:00 6.9° 993.2 hPa 11.9 m/s 14.3 mm 6.8° 996.0 hPa 12.0 m/s 62.6 mm 6.5° 989.3 hPa 12.0 m/s 3.2 mm 7.3° 993.7 hPa 10.4 m/s 7.7° 994.8 hPa 15.0 m/s
10:00 6.6° 993.7 hPa 11.4 m/s 24.2 mm 7.5° 994.3 hPa 13.2 m/s 69.8 mm 5.3° 990.2 hPa 11.6 m/s 1.4 mm 6.7° 994.2 hPa 10.9 m/s 7.6° 993.5 hPa 16.3 m/s
13:00 5.9° 994.4 hPa 11.3 m/s 25.6 mm 6.0° 994.9 hPa 10.1 m/s 75.2 mm 5.3° 992.1 hPa 11.8 m/s 0.8 mm 6.1° 994.8 hPa 11.4 m/s 5.3° 995.9 hPa 14.0 m/s
16:00 5.4° 996.4 hPa 11.5 m/s 24.8 mm 5.4° 996.3 hPa 11.1 m/s 5.4° 996.9 hPa 15.2 m/s 24.8 mm
19:00 5.0° 997.3 hPa 11.3 m/s 25.5 mm 5.0° 997.1 hPa 11.0 m/s 4.7° 999.3 hPa 14.3 m/s 25.5 mm
22:00 5.2° 998.2 hPa 11.3 m/s 26.0 mm 5.3° 998.0 hPa 11.2 m/s 4.4° 1000.6 hPa 12.5 m/s 26.0 mm
 07:31     17:37    Daglengte: 10:06 Zondag 23 Feb
01:00 5.5° 999.0 hPa 11.6 m/s 26.9 mm 5.6° 998.8 hPa 11.4 m/s 4.3° 1001.3 hPa 13.6 m/s 26.9 mm
04:00 5.2° 999.1 hPa 11.6 m/s 27.7 mm 5.3° 998.8 hPa 11.4 m/s 4.0° 1001.6 hPa 13.8 m/s 27.7 mm
07:00 5.0° 999.2 hPa 11.6 m/s 28.2 mm 5.1° 998.9 hPa 11.5 m/s 3.8° 1002.1 hPa 12.6 m/s 28.2 mm
10:00 5.7° 999.4 hPa 11.2 m/s 28.7 mm 5.8° 999.2 hPa 11.1 m/s 4.4° 1001.3 hPa 12.3 m/s 28.7 mm
13:00 6.5° 999.7 hPa 10.8 m/s 28.9 mm 6.6° 999.6 hPa 10.7 m/s 4.9° 1000.4 hPa 12.4 m/s 28.9 mm
16:00 5.9° 1000.5 hPa 9.8 m/s 29.2 mm 6.0° 1000.8 hPa 9.7 m/s 4.4° 998.1 hPa 11.0 m/s 29.2 mm
19:00 5.3° 1001.5 hPa 8.9 m/s 29.4 mm 5.4° 1001.9 hPa 8.7 m/s 4.1° 997.5 hPa 10.9 m/s 29.4 mm
22:00 5.4° 1004.2 hPa 8.5 m/s 29.8 mm 5.5° 1004.5 hPa 8.0 m/s 4.7° 999.8 hPa 14.3 m/s 29.8 mm
 07:28     17:39    Daglengte: 10:11 Maandag 24 Feb
01:00 5.4° 1007.0 hPa 7.6 m/s 29.8 mm 5.5° 1007.2 hPa 7.3 m/s 4.5° 1004.8 hPa 11.1 m/s 29.8 mm
04:00 5.1° 1009.1 hPa 6.8 m/s 29.8 mm 5.0° 1009.0 hPa 6.4 m/s 5.1° 1010.2 hPa 10.7 m/s 29.8 mm
07:00 4.6° 1011.2 hPa 6.0 m/s 29.8 mm 4.6° 1010.8 hPa 5.5 m/s 4.2° 1015.4 hPa 10.9 m/s 29.8 mm
10:00 5.1° 1008.7 hPa 5.4 m/s 29.8 mm 5.2° 1007.8 hPa 5.2 m/s 4.7° 1018.5 hPa 7.4 m/s 29.8 mm
13:00 5.6° 1006.0 hPa 5.1 m/s 29.8 mm 5.7° 1004.8 hPa 4.9 m/s 4.6° 1019.2 hPa 7.7 m/s 29.8 mm
16:00 5.0° 1003.4 hPa 5.0 m/s 29.8 mm 5.1° 1002.1 hPa 5.0 m/s 4.3° 1016.8 hPa 5.8 m/s 29.8 mm
19:00 4.4° 1000.6 hPa 5.1 m/s 29.8 mm 4.5° 999.5 hPa 5.0 m/s 3.0° 1012.8 hPa 6.0 m/s 29.8 mm
22:00 4.8° 998.3 hPa 5.0 m/s 30.3 mm 5.0° 997.6 hPa 4.6 m/s 2.0° 1006.3 hPa 9.2 m/s 30.3 mm
 07:26     17:42    Daglengte: 10:16 Dinsdag 25 Feb
01:00 5.2° 995.7 hPa 4.9 m/s 34.3 mm 5.6° 995.7 hPa 4.2 m/s 1.4° 995.6 hPa 12.3 m/s 34.3 mm
04:00 5.3° 995.3 hPa 5.6 m/s 37.1 mm 5.2° 995.9 hPa 5.3 m/s 6.4° 988.7 hPa 8.6 m/s 37.1 mm
07:00 4.8° 995.3 hPa 7.0 m/s 37.5 mm 4.7° 996.1 hPa 6.5 m/s 6.0° 986.8 hPa 12.2 m/s 37.5 mm
10:00 5.5° 995.3 hPa 7.8 m/s 37.7 mm 5.5° 996.0 hPa 7.3 m/s 6.0° 986.5 hPa 13.0 m/s 37.7 mm
13:00 6.3° 995.1 hPa 8.5 m/s 38.5 mm 6.3° 996.0 hPa 8.1 m/s 5.9° 984.8 hPa 13.4 m/s 38.5 mm
16:00 5.3° 995.8 hPa 7.3 m/s 39.9 mm 5.3° 997.0 hPa 6.7 m/s 5.5° 983.0 hPa 13.5 m/s 39.9 mm
19:00 4.3° 996.7 hPa 5.9 m/s 40.8 mm 4.3° 998.0 hPa 5.3 m/s 4.5° 982.4 hPa 12.7 m/s 40.8 mm
22:00 3.8° 997.3 hPa 5.7 m/s 41.6 mm 3.8° 998.8 hPa 5.2 m/s 4.2° 980.8 hPa 11.6 m/s 41.6 mm
 07:23     17:44    Daglengte: 10:21 Woensdag 26 Feb
01:00 3.3° 997.7 hPa 5.5 m/s 42.4 mm 3.3° 999.6 hPa 5.1 m/s 3.8° 976.7 hPa 10.0 m/s 42.4 mm
04:00 3.0° 996.0 hPa 5.8 m/s 42.6 mm 2.9° 998.0 hPa 5.3 m/s 3.8° 973.9 hPa 11.1 m/s 42.6 mm
07:00 2.6° 994.4 hPa 5.9 m/s 43.7 mm 2.5° 996.5 hPa 5.5 m/s 3.6° 971.3 hPa 10.6 m/s 43.7 mm
10:00 3.9° 992.1 hPa 6.4 m/s 44.1 mm 3.8° 994.0 hPa 5.8 m/s 4.6° 971.3 hPa 13.5 m/s 44.1 mm
13:00 5.0° 990.0 hPa 6.4 m/s 44.3 mm 5.1° 991.4 hPa 6.1 m/s 4.0° 974.9 hPa 9.6 m/s 44.3 mm
19:00 3.4° 989.5 hPa 3.7 m/s 44.5 mm 3.4° 990.0 hPa 3.5 m/s 3.5° 984.1 hPa 6.3 m/s 44.5 mm
 07:20     17:46    Daglengte: 10:26 Donderdag 27 Feb
01:00 2.5° 989.5 hPa 5.3 m/s 44.5 mm 2.5° 989.2 hPa 5.1 m/s 2.1° 993.3 hPa 7.6 m/s 44.5 mm
07:00 1.1° 988.4 hPa 4.7 m/s 44.5 mm 1.1° 987.3 hPa 4.6 m/s 1.4° 1000.0 hPa 6.1 m/s 44.5 mm
13:00 4.2° 988.5 hPa 5.8 m/s 44.5 mm 4.2° 987.1 hPa 5.4 m/s 3.6° 1003.5 hPa 10.2 m/s 44.5 mm
19:00 2.4° 992.0 hPa 4.3 m/s 44.6 mm 2.4° 991.1 hPa 4.4 m/s 1.9° 1002.0 hPa 3.6 m/s 44.6 mm
 07:18     17:48    Daglengte: 10:30 Vrijdag 28 Feb
01:00 1.8° 994.0 hPa 3.1 m/s 45.2 mm 1.8° 993.3 hPa 2.9 m/s 2.2° 1001.2 hPa 5.7 m/s 45.2 mm
07:00 1.1° 996.5 hPa 3.2 m/s 45.9 mm 1.0° 996.2 hPa 2.9 m/s 2.4° 999.6 hPa 6.2 m/s 45.9 mm
13:00 4.3° 999.2 hPa 3.7 m/s 46.2 mm 4.3° 999.3 hPa 3.4 m/s 4.7° 997.8 hPa 6.8 m/s 46.2 mm
19:00 2.7° 995.1 hPa 4.3 m/s 48.0 mm 2.8° 995.3 hPa 4.0 m/s 1.7° 993.2 hPa 7.4 m/s 48.0 mm
 07:15     17:51    Daglengte: 10:36 Zaterdag 29 Feb
01:00 2.9° 991.7 hPa 6.6 m/s 49.3 mm 2.9° 991.7 hPa 6.6 m/s 49.3 mm
07:00 2.4° 989.8 hPa 6.7 m/s 51.3 mm 2.4° 989.8 hPa 6.7 m/s 51.3 mm
13:00 4.8° 992.0 hPa 6.3 m/s 1.3 mm
19:00 4.0° 993.0 hPa 5.5 m/s 1.4 mm
 07:12     17:53    Daglengte: 10:41 Zondag 01 Maa
01:00 3.6° 993.2 hPa 4.6 m/s 2.0 mm
07:00 3.1° 994.1 hPa 3.5 m/s 1.9 mm
13:00 4.3° 996.9 hPa 5.1 m/s 1.5 mm
19:00 3.7° 996.8 hPa 4.0 m/s 1.3 mm
 07:10     17:55    Daglengte: 10:45 Maandag 02 Maa
01:00 3.7° 996.8 hPa 6.3 m/s 1.3 mm
07:00 3.5° 995.5 hPa 5.8 m/s 0.8 mm
13:00 4.8° 995.9 hPa 4.3 m/s 0.8 mm
19:00 4.2° 996.7 hPa 3.0 m/s 1.1 mm
 07:07     17:57    Daglengte: 10:50 Dinsdag 03 Maa
01:00 4.0° 997.0 hPa 2.3 m/s 1.1 mm
07:00 4.3° 997.1 hPa 3.1 m/s 0.2 mm
13:00 5.0° 999.8 hPa 4.5 m/s 1.2 mm
19:00 4.2° 1000.7 hPa 5.0 m/s 1.1 mm
 07:04     18:00    Daglengte: 10:56 Woensdag 04 Maa
01:00 3.8° 1001.0 hPa 5.4 m/s 0.3 mm
07:00 3.7° 999.0 hPa 4.7 m/s 0.8 mm
13:00 5.2° 999.3 hPa 4.9 m/s 1.1 mm
19:00 4.4° 1000.7 hPa 3.8 m/s 0.7 mm
 07:02     18:02    Daglengte: 11:00 Donderdag 05 Maa
01:00 4.1° 1002.8 hPa 3.9 m/s 0.7 mm
07:00 4.1° 1003.8 hPa 4.8 m/s 1.0 mm
13:00 5.2° 1004.5 hPa 5.0 m/s 0.5 mm
FMI Hirlam - 7.5 km EWN WRFDA - 12 km DWD ICON - 7 km GFS - 25 km Basiskaart






























































Updatetijd (Europe/Amsterdam) Resolutie Lengte Stap
FMI Hirlam 13:00, 19:00, 01:00, 07:00 7.5 km 49h 1h
EWN WRFDA 08:30, 14:30, 20:30, 02:30 12 km 73h 1h
DWD ICON 10:45, 16:45, 22:45, 04:45 7 km 75h 1h
GFS 12:45, 18:45, 00:45, 06:45 25 km 237h 3h
30+ mm
25-30 mm
20-25 mm
15-20 mm
10-15 mm
6-10 mm
4-6 mm
2-4 mm
1-2 mm
0.5-1 mm
0.2-0.5 mm
0.1-0.2 mm
30+ mm
25-30 mm
20-25 mm
15-20 mm
10-15 mm
6-10 mm
4-6 mm
2-4 mm
1-2 mm
0.5-1 mm
0.2-0.5 mm
0.1-0.2 mm
Sneeuwval
Natte sneeuw
Hagel
Vorst
30+ mm
25-30 mm
20-25 mm
15-20 mm
10-15 mm
6-10 mm
4-6 mm
2-4 mm
1-2 mm
0.5-1 mm
0.2-0.5 mm
0.1-0.2 mm
Sneeuwval
Natte sneeuw
Hagel
Vorst
Onweer
50 mm
40 mm
30 mm
26 mm
22 mm
18 mm
14 mm
10 mm
9 mm
8 mm
7 mm
6 mm
5 mm
4.5 mm
4 mm
3.5 mm
3 mm
2.5 mm
2 mm
1.5 mm
1 mm
0.8 mm
0.6 mm
0.4 mm
0.2 mm
0.05 mm
35°
30°
25°
20°
15°
10°
-5°
-10°
-15°
-20°
-25°
-30°
-35°
33> m/s
29 m/s
25 m/s
21 m/s
17 m/s
14 m/s
11 m/s
8 m/s
5 m/s
3 m/s
0 m/s
2600 J/kg
2400 J/kg
2200 J/kg
2000 J/kg
1800 J/kg
1600 J/kg
1400 J/kg
1200 J/kg
1000 J/kg
800 J/kg
600 J/kg
400 J/kg
200 J/kg
70 dBZ
65 dBZ
60 dBZ
55 dBZ
50 dBZ
45 dBZ
40 dBZ
35 dBZ
30 dBZ
25 dBZ
20 dBZ
15 dBZ
10 dBZ
5 dBZ
-1 K
-2 K
-3 K
-4 K
-5 K
-6 K
-7 K
-8 K
-9 K
950 m²/s²
900 m²/s²
850 m²/s²
800 m²/s²
750 m²/s²
700 m²/s²
650 m²/s²
600 m²/s²
550 m²/s²
500 m²/s²
450 m²/s²
400 m²/s²
350 m²/s²
300 m²/s²
250 m²/s²
200 m²/s²
150 m²/s²
100 m²/s²
46 m/s
44 m/s
42 m/s
40 m/s
38 m/s
36 m/s
34 m/s
32 m/s
30 m/s
28 m/s
26 m/s
24 m/s
22 m/s
20 m/s
16 m/s
12 m/s
8 m/s
4 m/s
30 m/s
28 m/s
26 m/s
24 m/s
22 m/s
20 m/s
18 m/s
16 m/s
14 m/s
12 m/s
10 m/s
8 m/s
6 m/s
4 m/s
2 m/s
3.0
2.8
2.6
2.4
2.2
2.0
1.8
1.6
1.4
1.2
1.0
0.8
0.6
0.4
0.2
15
14
13
12
11
10
9
8
7
6
5
4
3
2
1
90%
80%
70%
60%
50%
40%
30%
20%
10%
42
40
38
36
34
32
30
28
26
24
22
20
18
16
14
12
90+ cm
80-90 cm
70-80 cm
60-70 cm
50-60 cm
40-50 cm
30-40 cm
20-30 cm
10-20 cm
1-10 cm
Sneeuwval
Natte sneeuw
Regen
>120 mm
115 mm
110 mm
105 mm
100 mm
95 mm
90 mm
85 mm
80 mm
75 mm
70 mm
65 mm
60 mm
55 mm
50 mm
45 mm
45 mm
40 mm
35 mm
30 mm
25 mm
20 mm
15 mm
10 mm
5 mm
0.1 mm
960 hPa
880 hPa
800 hPa
720 hPa
640 hPa
560 hPa
584 gpdm
568 gpdm
552 gpdm
536 gpdm
520 gpdm
504 gpdm
488 gpdm
Extreem zwaar Noodweer Kans op onweer
15% 15% 5% 50% 15%

Dag




Kaart






35°
30°
25°
20°
15°
10°
-5°
-10°
-15°
-20°
-25°
-30°
-35°
33> m/s
29 m/s
25 m/s
21 m/s
17 m/s
14 m/s
11 m/s
8 m/s
5 m/s
3 m/s
0 m/s
Extreem zwaar Noodweer Kans op onweer
15% 15% 5% 50% 15%
>120 mm
115 mm
110 mm
105 mm
100 mm
95 mm
90 mm
85 mm
80 mm
75 mm
70 mm
65 mm
60 mm
55 mm
50 mm
45 mm
45 mm
40 mm
35 mm
30 mm
25 mm
20 mm
15 mm
10 mm
5 mm
0.1 mm
Onweer risico kaarten - De groene en gele kleur geeft de kans op onweer aan binnen 40 km van een punt. Oranje, rood en violet hebben hetzelfde niveau zoals je het ziet op estofex.org waaronder ook de kans op hagel en supercells.

dBZ - dBZ staat voor decibel ten opzichte van Z.

Cape - Convective available potential energy (CAPE), is de totale hoeveelheid energie die een luchtpakketje nodig heeft om zover mogelijk te stijgen in de atmosfeer.

K Index - K-Index wordt berekend door de Vertical Totals (VT) en het verschil tussen de 850 hPa temperatuur en de 700 hPa dauwpuntsdepressie (Tdd 700) bij elkaar op te tellen.

TT Index - Convectie index wordt gebruikt voor het voorspellen van zware buien of onweer.

WRF - The Weather Research and Forecasting (WRF) is een volgende generatie mesoscale numeriek weersvoorspelling systeem ontworpen om zowel de operationele planning als het atmosferisch onderzoek te dienen. WRF is a cooperatie tussen het National Center for Atmospheric Research (NCAR), National Centers for Environmental Prediction (NCEP), Forecast Systems Laboratory (FSL), Air Force Weather Agency (AFWA), Naval Research Laboratory, University of Oklahoma, en de Federal Aviation Administration (FAA). Deze software draait op onze server.

WRFDA - Een meer geavanceerde versie van WRF

Arome - Het 2.5 km Arome model. Verzorgd door het Noors Meteorologisch Instituut.

MET Norway - De proff-default 4km meteorological data is een beste keus selectie van meteorologische modellen gebruikt door met.no die zijn geïnterpoleerd tot een gemeenschappelijke dataset. Verzorgd door het Noorse Meteorologisch Instituut.

SMHI - Het Hirlam model verzorgd door het Zweeds meteorologisch instituut.

FMI - Het Hirlam model verzorgd door het Fins meteorologisch instituut. Dekking alleen Finland.

GFS - Het Global Forecast Systeem (GFS) is een wereldwijd numerieke weersvoorspelling computermodel, gerund door NOAA.

GEM-GDPS - Het GEM-GDPS is a wereldwijd numeriek weersvoorspelling computermodel verzorgd door het Canadees Meteorologisch Centrum.

Credits/Info: Dank aan Stefan Gofferje van sääkeskus.fi voor enkele formules van GrADS. Info: Wikipedia.

Betrouwbaarheid van de verwachting

NB! 2015-03-29: Rebuilding the accuracy-test!

EWNACC
Day 1 Good forecasts

Dag 1 Tmax

Dag 2 Tmax

Geladen verwachtingen TOP 50

Totaal geladen verwachtingen:
Plaats Latitude Longitude Verwachtingen Plaats Latitude Longitude Verwachtingen